AirNav   Everest Fuels
 
 424 users online  

55LL Sky Soaring Airport
Union, Illinois, USA

GOING TO UNION?


FAA INFORMATION EFFECTIVE 13 AUGUST 2020

Location

FAA Identifier: 55LL
Lat/Long: 42-09-15.0860N 088-30-41.3150W
42-09.251433N 088-30.688583W
42.1541906,-88.5114764
(estimated)
Elevation: 884 ft. / 269.4 m (surveyed)
Variation: 00W (1985)
From city: 5 miles SE of UNION, IL
Time zone: UTC -5 (UTC -6 during Standard Time)
Zip code: 60142

Airport Operations

Airport use: Private use. Permission required prior to landing
Activation date: 08/1978
Control tower: no
ARTCC: CHICAGO CENTER
FSS: KANKAKEE FLIGHT SERVICE STATION
Attendance: IREG
Wind indicator: yes
Segmented circle: no

Airport Communications

WX AWOS-3 at DKB (16 nm SW): 119.075 (815-748-2350)
WX ASOS at DPA (19 nm SE): PHONE 630-587-3668
  • 123.3

Nearby radio navigation aids

VOR radial/distance  VOR name  Freq  Var
DPAr334/17.4DUPAGE VOR/DME108.4002E
OBKr263/25.2NORTHBROOK VOR/DME113.0002W
RFDr097/30.9ROCKFORD VOR/DME110.8001E
JVLr130/35.8JANESVILLE VOR/DME114.3003E
JOTr345/37.5JOLIET VOR/DME112.3002E

 
NDB name  Hdg/Dist  Freq  Var  ID
LAKE LAWN176/32.940402WLVV .-.. ...- ...-

Airport Services

Runway Information

Runway 9/27

Dimensions: 3000 x 100 ft. / 914 x 30 m
Surface: turf
RUNWAY 9  RUNWAY 27
Traffic pattern: leftright
Displaced threshold: 600 ft.no
Obstructions: 20 ft. trees, 40 ft. from runwaynone

Airport Ownership and Management from official FAA records

Ownership: Privately-owned
Owner: SKY SOARING LLC
12020 US 20
HAMPSHIRE, IL 60140
Phone (847) 683-7627
Manager: SKY SOARING BOARD OF DIRECTORS
12020 US RT 20
HAMPSHIRE, IL 60140
Phone 847-426-1860
LARRY KASE PHONE

Airport Operational Statistics

Aircraft based on the field: 28
Single engine airplanes: 3
Gliders airplanes: 25
    

Additional Remarks

GLIDER ACTIVITY ON ARPT.
ALL TFC PATTERNS ON S SIDE OF ARPT ARE FOR NOISE ABATEMENT.
FOR CD CTC CHICAGO APCH AT 847-289-0926.

Instrument Procedures

There are no published instrument procedures at 55LL.

Some nearby airports with instrument procedures:

3CK - Lake in the Hills Airport (9 nm E)
KDKB - De Kalb Taylor Municipal Airport (16 nm SW)
10C - Galt Field Airport (16 nm N)
C77 - Poplar Grove Airport (18 nm NW)
KDPA - DuPage Airport (19 nm SE)
 
Loc | Ops | Rwys | IFR | FBO | Links
Com | Nav | Svcs | Stats | Notes
Area around 55LL (Sky Soaring Airport)
 
Road maps at: MapQuest Bing Google
 
Aerial photo
WARNING: Photo may not be current or correct
Aerial photo of 55LL (Sky Soaring Airport)
Taken in August 2019

Do you have a better or more recent aerial photo of Sky Soaring Airport that you would like to share? If so, please send us your photo.

 
Sectional chart

 
Airport distance calculator
Flying to Sky Soaring Airport? Find the distance to fly.

From to 55LL

Sunrise and sunset
Times for 15-Aug-2020
 Local
(UTC-5)
 Zulu
(UTC)
Morning civil twilight05:3410:34
Sunrise06:0411:04
Sunset19:5300:53
Evening civil twilight20:2301:23

Current date and time
Zulu (UTC)  15-Aug-2020 08:44:55
Local (UTC-5)  15-Aug-2020 03:44:55
 
METAR
KDKB 
16nm SW 
150835Z AUTO 00000KT 10SM CLR 18/16 A3000 RMK AO2 T01770156
KDPA 
18nm SE 
150752Z 00000KT 10SM CLR 18/16 A2997 RMK AO2 SLP142 T01830161
K06C 
21nm SE 
150835Z AUTO 00000KT 10SM SCT050 20/18 A2997 RMK AO2 T01980175
KARR 
23nm S 
150752Z AUTO 00000KT 7SM CLR 16/16 A2997 RMK AO2 SLP145 T01610156
KRFD 
26nm W 
150754Z 00000KT 10SM FEW100 19/16 A3000 RMK AO2 SLP152 T01890161
KPWK 
27nm E 
150752Z AUTO 00000KT 10SM FEW055 21/19 A2998 RMK AO2 SLP146 T02110189
KORD 
28nm E 
150751Z 35005KT 10SM CLR 23/19 A2996 RMK AO2 SLP141 T02280194
KRPJ 
30nm SW 
150835Z AUTO 14005KT 7SM CLR 16/16 A2999 RMK AO2 T01580158
TAF
KDPA 
18nm SE 
150520Z 1506/1606 VRB03KT P6SM FEW050 SCT250 FM151400 27007KT P6SM SCT050 TEMPO 1520/1524 3SM TSRA BKN035CB FM160200 33007KT P6SM SCT035
NOTAMs
Click for the latest NOTAMs
NOTAMs are issued by the DoD/FAA and will open in a separate window not controlled by AirNav.

 

 
 

Would you like to see your business listed on this page?

 If your business provides an interesting product or service to pilots, flight crews, aircraft, or users of the Sky Soaring Airport, you should consider listing it here.  To start the listing process, click on the button below
 
Add a business
 

Other Pages about Sky Soaring Airport

Update a link
 
Copyright © AirNav, LLC. All rights reserved. Privacy Policy  Contact